All Stations Radar Satellite Rainfall Station Map Enhanced Site
Observations: Wind Gusts Humidity Temperature    
Forecasts: Wind Gusts Humidity Temperature    

Valley Center (907, 908, 909, 1030, 6926) Station Data (Station Map)

Red Flag Warning: No
Fire Weather Zone: 250
SDGE Region: North East
Lat/Lon: 33.236/-117.001

Observations

Time (PDT)Wind Spd/GustTempRHFuel Moisture
7/22 8:50pmNW 1 G 272°54%-
7/22 8:40pmWNW 1 G 372°54%-
7/22 8:30pmW 1 G 372°53%-
7/22 8:20pmW 2 G 373°51%-
7/22 8:10pmWNW 2 G 373°49%-
7/22 8:00pmNW 3 G 574°48%-
7/22 7:50pmWNW 2 G 474°47%-
7/22 7:40pmNW 3 G 575°47%-
7/22 7:30pmWNW 4 G 776°45%-
7/22 7:20pmWNW 4 G 777°43%-
7/22 7:10pmWNW 4 G 778°45%-
7/22 6:50pmWNW 4 G 779°44%-
7/22 6:40pmWNW 4 G 879°44%-
7/22 6:30pmNW 4 G 980°44%-
7/22 6:20pmWNW 5 G 880°43%-
7/22 6:10pmWNW 5 G 881°42%-
7/22 6:00pmWNW 5 G 1081°42%-
7/22 5:50pmNW 5 G 1081°42%-
7/22 5:40pmWNW 6 G 1081°42%-
7/22 5:30pmWNW 6 G 1182°43%-
7/22 5:20pmWNW 6 G 1082°43%-
7/22 5:10pmWNW 6 G 1282°43%-
7/22 5:00pmWNW 6 G 1183°42%-
7/22 4:50pmWNW 7 G 1283°40%-
7/22 4:40pmWNW 8 G 1283°40%-
7/22 4:30pmW 8 G 1384°38%-
7/22 4:20pmW 7 G 1385°34%-
7/22 4:10pmWNW 7 G 1285°34%-
7/22 4:00pmWNW 7 G 1185°34%-
7/22 3:50pmNW 7 G 1185°35%-
7/22 3:40pmWNW 6 G 1085°36%-
7/22 3:30pmWNW 7 G 1186°35%-
7/22 3:20pmWNW 6 G 1186°34%-
7/22 3:10pmNW 5 G 1086°33%-
7/22 3:00pmNW 6 G 1186°32%-
7/22 2:50pmNW 5 G 1185°33%-
7/22 2:40pmWNW 6 G 1185°36%-
7/22 2:30pmW 6 G 1084°37%-
7/22 2:20pmW 6 G 1184°36%-
7/22 2:10pmWNW 6 G 1285°37%-
7/22 2:00pmWNW 7 G 1184°39%-
7/22 1:50pmWNW 8 G 1284°39%-
7/22 1:40pmWNW 6 G 1084°39%-
7/22 1:30pmWNW 6 G 1185°38%-
7/22 1:20pmWNW 6 G 1084°38%-
7/22 1:10pmNW 6 G 1284°39%-
7/22 1:00pmWNW 5 G 1084°38%-
7/22 12:50pmW 5 G 1184°39%-
7/22 12:40pmWNW 5 G 1083°40%-
7/22 12:30pmW 5 G 1084°38%-
7/22 12:20pmWSW 4 G 982°39%-
7/22 12:10pmWNW 5 G 1182°39%-
7/22 12:00pmWNW 5 G 1382°40%-
7/22 11:50amW 4 G 981°41%-
7/22 11:40amWSW 4 G 1181°42%-
7/22 11:30amWNW 3 G 880°43%-
7/22 11:20amWNW 4 G 979°44%-
7/22 11:10amNW 3 G 879°44%-
7/22 11:00amWNW 4 G 878°48%-
7/22 10:50amWNW 4 G 878°49%-
7/22 10:40amWNW 4 G 877°50%-
7/22 10:30amW 3 G 777°48%-
7/22 10:20amW 4 G 677°50%-
7/22 10:10amWSW 4 G 876°52%-
7/22 10:00amW 3 G 775°53%-
7/22 9:50amW 3 G 775°55%-
7/22 9:40amW 3 G 774°55%-
7/22 9:30amW 3 G 673°57%-
7/22 9:20amWSW 3 G 772°59%-
7/22 9:10amWSW 3 G 772°59%-
7/22 9:00amWSW 2 G 671°61%-
7/22 8:50amWSW 2 G 571°62%-
7/22 8:40amWNW 2 G 470°63%-
7/22 8:30amWSW 2 G 670°65%-
7/22 8:20amWSW 2 G 570°65%-
7/22 8:10amWSW 1 G 371°62%-
7/22 8:00amSE 1 G 169°64%-
7/22 7:50amSE 2 G 467°69%-
7/22 7:40amSE 2 G 466°75%-
7/22 7:30amSE 2 G 365°93%-
7/22 7:20amESE 1 G 364°100%-
7/22 7:10amE 1 G 263°100%-
7/22 7:00amE 1 G 262°100%-
7/22 6:50amESE 1 G 260°100%-
7/22 6:40amENE 1 G 159°100%-
7/22 6:30amNNE 1 G 157°100%-
7/22 6:20amNE 1 G 156°100%-
7/22 6:10amENE 1 G 156°100%-
7/22 6:00amNE 1 G 157°100%-
7/22 5:50amNNE 1 G 157°100%-
7/22 5:40amNNE 1 G 257°100%-
7/22 5:30amN 1 G 257°100%-
7/22 5:20amNE 1 G 158°100%-
7/22 5:10amNE 1 G 158°100%-
7/22 5:00amNE 1 G 257°100%-
7/22 4:50amNE 1 G 157°100%-
7/22 4:40amNE 1 G 157°100%-
7/22 4:30amNE 1 G 257°100%-
7/22 4:20amNNE 1 G 158°100%-
7/22 4:10amNNE 1 G 158°100%-
7/22 4:00amNW 1 G 258°100%-
7/22 3:50amN 1 G 158°100%-
7/22 3:40amN 1 G 258°100%-
7/22 3:30amNNE 1 G 258°100%-
7/22 3:20amNNE 1 G 258°100%-
7/22 3:10amN 1 G 159°100%-
7/22 3:00amNNE 1 G 159°100%-
7/22 2:50amNNE 1 G 259°100%-
7/22 2:40amN 1 G 259°100%-
7/22 2:30amNNW 1 G 260°100%-
7/22 2:20amNNE 1 G 160°100%-
7/22 2:10amNNE 1 G 160°100%-
7/22 2:00amN 1 G 160°100%-
7/22 1:50amNNE 1 G 360°100%-
7/22 1:40amWNW 1 G 262°100%-
7/22 1:30amNNE 1 G 261°100%-
7/22 1:20amNE 1 G 260°100%-
7/22 1:10amNNE 1 G 260°100%-
7/22 1:00amN 1 G 161°100%-
7/22 12:50amNE 1 G 161°100%-
7/22 12:40amNNE 1 G 162°100%-
7/22 12:30amNNE 1 G 162°100%-
7/22 12:20amE 1 G 162°100%-
7/22 12:10amESE 1 G 162°100%-
7/22 12:00amE 1 G 263°100%-
7/21 11:50pmN 1 G 163°100%-
7/21 11:40pmNNW 1 G 263°100%-
7/21 11:30pmNNW 1 G 264°100%-
7/21 11:20pmNNW 1 G 264°95%-
7/21 11:10pmNW 1 G 364°99%-
7/21 11:00pmW 1 G 364°97%-
7/21 10:50pmWSW 1 G 165°84%-
7/21 10:40pmNNW 1 G 165°81%-
7/21 10:30pmNNW 1 G 165°79%-
7/21 10:20pmW 1 G 166°80%-
7/21 10:10pmNNW 1 G 166°79%-
7/21 10:00pmNW 1 G 366°79%-
7/21 9:50pmNW 1 G 367°76%-
7/21 9:40pmNNW 1 G 267°75%-
7/21 9:30pmNW 1 G 268°74%-
7/21 9:20pmNW 1 G 368°73%-
7/21 9:10pmNW 1 G 368°71%-
7/21 9:00pmWNW 1 G 269°70%-
7/21 8:50pmSW 1 G 269°69%-
7/21 8:40pmWSW 1 G 170°68%-
7/21 8:30pmNNW 1 G 170°68%-
7/21 8:20pmNNE 1 G 170°68%-
7/21 8:10pmN 1 G 171°67%-
7/21 8:00pmNW 1 G 471°66%-
7/21 7:50pmNW 3 G 571°66%-
7/21 7:40pmWNW 4 G 772°64%-
7/21 7:30pmNW 5 G 873°61%-
7/21 7:20pmNW 5 G 874°59%-
7/21 7:10pmWNW 4 G 875°57%-
7/21 7:00pmWNW 4 G 776°54%-
7/21 6:50pmW 4 G 876°53%-
7/21 6:40pmWNW 3 G 677°50%-
7/21 6:30pmWNW 5 G 877°49%-
7/21 6:20pmW 5 G 878°48%-
7/21 6:10pmW 4 G 879°47%-
7/21 6:00pmWSW 3 G 879°45%-